Location: American Medical Response
(33.3472°N, 96.5511°W)
Time: 16:07:14
(UTC+00:00)

SJ 16-02 - Pass Details

Date: 06 July 2022
Orbit: 604 x 615 km, 75.0° (Epoch: 14 August)

Event Time Altitude Azimuth Distance (km) Brightness Sun altitude
Rises 05:35:57 0° 355° (N) 2,889 5.9 -32.5°
Reaches altitude 10° 05:38:23 10° 4° (N) 1,979 4.7 -32.6°
Enters shadow 05:40:16 22° 22° (NNE) 1,366 3.5 -32.7°
